Wind_Speed
29 29 28 28 28 28 28 28 27 26 26 26 26 26 25 25 23 22 20 20 21 22 23 24 24 24 23 22 21 21 20 20 19 19 19 19 19 20 21 21 22 22 23 24 24 25 25 25 25 25 25 24 24 23 24 24 24 24 25 25 24 22 21 20 20 20 21 21 22
30 29 29 28 29 29 28 27 27 26 26 26 26 27 27 26 24 22 21 21 22 24 25 25 25 24 23 22 21 21 20 20 19 19 19 20 20 21 22 22 23 23 23 24 25 25 26 26 26 26 25 25 24 24 23 22 22 21 20 19 18 17 17 18 20 21 22 23 24
28 27 27 27 28 28 27 27 26 25 25 26 27 28 28 26 23 21 21 22 23 25 26 26 25 23 22 22 21 21 21 20 20 20 20 21 22 23 23 23 23 24 24 24 25 25 25 25 26 26 26 26 26 25 24 22 21 19 19 19 19 19 20 21 23 24 25 27 29
27 26 26 26 26 26 26 26 25 25 25 27 28 29 28 25 22 21 21 22 24 25 25 25 24 23 22 22 21 21 21 20 21 21 22 23 23 24 24 24 24 25 25 25 25 25 25 26 26 26 26 26 26 25 23 22 21 20 21 22 23 23 24 24 25 26 28 30 32
27 26 26 26 26 26 26 25 25 26 27 28 29 29 27 24 22 21 21 23 24 25 25 24 23 23 22 22 21 21 21 21 21 22 23 24 24 24 25 25 25 26 26 26 25 25 25 25 26 25 25 25 24 23 22 21 21 22 23 25 26 26 26 26 26 28 29 31 32
28 27 27 27 27 27 26 25 26 28 30 30 30 29 26 24 22 21 22 23 24 25 25 24 23 23 23 22 21 20 20 20 21 23 24 24 25 25 26 26 26 27 26 26 25 24 24 24 24 23 22 22 21 21 21 21 22 23 24 26 27 27 27 27 27 28 30 31 31
29 29 28 28 29 27 25 24 27 30 31 31 30 29 26 24 22 22 22 24 25 25 25 24 24 23 22 21 20 20 20 21 22 23 24 24 25 25 26 27 27 27 26 26 25 25 24 23 22 21 20 20 20 21 22 22 24 25 26 26 27 27 27 28 28 29 30 30 31
30 30 30 29 29 26 23 23 28 31 31 31 30 29 27 25 23 23 23 24 25 25 25 24 23 22 21 20 20 21 21 22 23 23 22 22 23 24 26 26 26 26 25 25 25 24 24 23 22 21 20 20 21 22 23 25 26 27 27 27 27 27 28 28 29 29 30 30 30
29 29 29 27 26 24 22 23 27 30 31 31 30 29 27 25 24 23 23 24 24 24 24 23 22 21 20 20 21 22 22 22 22 21 21 21 22 24 24 24 24 23 23 23 23 23 22 22 22 22 22 22 23 25 26 27 27 27 27 27 28 28 28 29 29 30 30 31 31
28 27 26 24 23 23 23 25 28 30 31 31 30 29 28 26 24 23 23 24 24 23 22 21 21 21 21 21 21 21 21 20 20 20 21 22 23 24 23 22 21 21 21 21 21 22 22 23 23 23 24 24 25 26 26 27 27 28 28 28 28 29 29 29 30 30 31 32 32
26 24 23 23 24 23 24 27 30 32 32 31 31 29 27 25 24 23 23 23 23 22 21 21 21 22 22 22 22 21 20 19 20 21 22 23 24 24 23 22 21 21 21 21 22 22 23 23 23 24 24 25 25 26 26 27 28 28 29 29 29 30 30 31 31 32 33 34 34
24 23 23 23 23 23 25 29 32 33 32 31 30 28 27 25 24 23 23 22 22 22 22 23 23 24 24 24 23 21 20 19 20 21 22 23 23 23 22 22 21 21 21 22 22 23 23 23 23 24 25 25 26 27 27 28 29 29 30 30 31 32 32 33 33 34 35 36 36
22 22 23 22 23 24 27 30 32 32 31 30 29 27 26 25 24 23 22 22 22 23 24 25 26 26 25 24 22 20 19 19 20 20 21 21 22 21 21 21 21 21 22 22 23 23 23 24 25 25 26 26 27 28 29 29 30 31 31 32 33 33 34 35 35 36 36 37 37
22 22 23 23 24 25 27 28 30 30 29 28 27 25 24 23 23 22 22 23 23 24 25 25 25 24 23 20 19 18 18 18 19 19 20 20 20 21 21 21 21 22 22 23 23 24 25 25 26 27 27 28 28 29 30 31 32 32 33 34 34 35 35 36 36 36 37 37 37
22 22 23 24 24 24 24 24 26 27 27 26 24 23 22 22 23 23 23 23 23 23 23 21 20 19 18 17 16 17 17 18 19 19 19 20 20 21 21 22 22 23 23 24 24 25 26 27 28 28 29 30 30 31 32 33 34 34 35 35 36 36 36 36 36 36 36 36 37
20 20 21 21 20 20 19 19 20 21 22 22 22 22 22 22 22 23 22 20 20 19 18 17 16 15 15 15 16 17 17 18 19 19 20 20 21 21 22 23 23 24 24 25 26 27 27 28 29 30 31 32 32 33 34 35 35 36 36 37 37 37 37 37 36 36 36 36 36
17 17 16 16 16 16 15 15 15 16 17 19 20 21 21 20 19 18 17 16 15 15 14 14 14 14 15 16 17 17 18 18 19 19 20 21 21 22 23 23 24 25 25 26 27 28 29 30 31 32 32 33 34 35 35 36 37 37 37 38 38 38 37 37 37 36 36 36 36
14 13 14 15 14 14 14 13 14 15 16 17 17 18 17 16 14 12 12 12 11 11 12 13 14 15 16 17 17 18 18 18 19 20 20 21 22 23 23 24 25 26 26 27 28 29 30 31 32 33 33 34 35 36 36 37 38 38 38 38 38 38 37 37 36 36 35 35 34
12 13 15 15 14 14 13 13 12 12 12 12 12 12 11 10 10 9 9 10 10 11 12 13 14 15 16 17 17 18 18 19 19 20 21 22 23 24 24 25 26 27 28 28 29 30 31 31 32 33 34 34 35 36 36 37 37 37 37 37 37 37 36 35 34 34 33 33 32
13 13 13 12 11 10 9 8 8 7 7 7 7 7 7 8 8 9 9 10 11 12 13 14 15 16 17 17 18 18 19 20 20 21 22 23 24 24 25 26 27 28 28 29 30 31 31 32 32 33 33 34 34 35 35 35 35 35 36 35 35 34 33 31 30 29 29 29 28
11 10 8 7 6 6 5 5 5 4 4 5 5 6 7 8 9 10 10 11 12 13 14 14 15 16 17 18 18 19 20 21 21 22 23 24 24 25 26 26 27 28 29 29 30 30 31 31 31 31 32 32 32 33 33 33 33 33 33 32 31 29 27 26 25 25 24 24 24
7 6 5 5 5 5 5 5 5 5 5 6 7 8 8 9 10 10 11 12 13 13 14 15 16 17 18 18 19 20 21 22 22 23 24 24 24 25 26 26 27 27 28 29 30 30 30 30 29 29 29 29 29 30 31 31 31 30 29 27 26 24 23 22 22 22 21 20 19
5 5 5 5 5 5 5 5 6 6 6 7 8 8 9 10 10 11 12 12 13 14 15 16 17 18 18 19 20 21 21 22 23 23 24 24 24 25 25 26 27 27 28 29 29 29 29 28 27 27 27 27 27 27 28 28 28 27 25 24 21 20 18 19 19 19 18 16 15
5 5 5 5 5 5 5 6 6 6 7 8 8 9 9 10 11 12 12 13 14 15 16 17 18 18 19 20 20 21 22 22 23 23 24 24 24 24 25 26 26 27 27 28 28 28 27 27 27 27 26 26 26 26 26 26 25 24 22 21 18 16 15 16 18 17 15 14 13
5 5 5 5 5 5 6 6 7 7 8 8 9 9 10 11 11 12 13 14 15 16 17 18 18 19 20 20 21 21 22 22 23 23 23 24 24 24 24 25 26 26 27 27 27 27 27 27 27 27 27 26 26 25 25 24 23 21 20 18 17 16 16 17 17 16 15 14 14
5 5 5 5 5 6 6 6 7 8 8 9 9 10 10 11 12 13 14 15 15 16 17 18 19 19 20 20 21 21 21 22 22 22 23 23 23 23 23 24 25 25 25 25 26 26 26 27 27 27 26 26 26 25 24 23 21 19 17 16 16 17 18 18 17 15 14 14 14
5 5 5 5 6 6 6 7 7 8 8 9 10 10 11 12 13 13 14 15 16 17 18 18 19 19 20 20 20 21 21 21 21 21 21 21 21 21 22 23 23 24 24 24 24 24 25 25 25 26 26 26 25 24 23 22 20 18 16 15 16 17 18 18 16 14 13 14 14
5 5 5 5 6 6 7 7 8 8 9 10 10 11 12 13 13 14 15 16 17 17 18 18 18 18 19 19 20 20 20 20 20 20 19 19 20 20 21 21 21 21 21 22 22 22 23 23 24 25 25 25 25 23 22 21 19 18 16 15 16 17 18 17 16 15 15 16 15
5 5 5 5 6 6 7 8 8 9 10 10 11 12 12 13 14 14 15 16 17 17 17 18 17 18 18 18 19 19 19 19 19 19 18 18 18 18 19 19 19 19 19 19 19 20 20 21 22 22 23 23 23 22 21 20 19 18 17 16 17 18 18 18 17 17 17 16 16
5 5 6 6 7 7 8 8 9 10 10 11 11 12 13 14 14 15 15 16 16 17 17 17 17 17 17 18 18 18 18 18 18 18 17 16 16 16 16 16 17 17 17 17 17 18 19 20 20 20 20 20 20 20 19 19 18 18 18 18 18 19 19 19 18 18 17 17 17
6 6 7 7 8 8 9 9 10 11 11 12 12 13 14 14 15 15 16 16 16 16 17 17 17 17 17 18 18 18 18 17 17 16 15 14 14 14 14 14 15 16 16 16 17 18 19 19 19 19 19 18 18 18 18 17 17 17 18 19 19 20 20 19 19 19 18 18 18
7 7 8 8 9 9 10 11 11 12 12 13 14 14 15 15 16 16 17 17 16 17 17 17 17 17 17 17 17 17 17 16 15 14 14 13 13 12 13 13 14 15 16 16 17 18 18 19 19 19 18 18 17 17 16 16 16 17 17 18 19 20 20 20 20 19 19 19 19
8 8 9 10 10 11 12 12 13 14 14 15 15 16 16 17 17 17 17 17 17 17 17 17 16 16 17 17 17 16 15 14 14 13 13 12 12 12 12 13 14 15 15 16 17 17 18 19 19 19 18 18 17 17 16 16 16 16 16 17 18 19 20 20 20 20 19 19 20
9 10 11 11 12 13 14 14 15 16 16 17 17 18 18 18 18 18 18 17 17 17 17 17 16 16 16 16 16 15 14 13 12 12 12 12 12 11 12 13 14 14 15 15 16 17 17 18 19 19 18 18 17 17 16 16 16 16 16 16 17 18 19 19 20 20 20 20 20
11 11 12 13 14 15 16 16 17 18 18 19 19 19 19 19 19 18 18 17 17 17 17 16 16 16 15 15 14 13 12 11 11 11 11 11 11 11 12 13 13 14 14 14 15 15 16 17 18 18 18 18 17 17 16 16 16 15 15 15 15 16 17 18 19 19 19 19 19
12 13 14 15 16 16 17 18 19 19 20 20 20 20 20 19 19 18 18 17 17 17 16 16 15 15 14 13 12 10 10 9 9 10 11 11 12 12 12 13 13 13 13 13 13 14 15 16 17 18 18 18 17 17 16 16 15 15 14 14 14 14 15 16 17 18 18 18 18
14 15 16 16 17 18 18 19 20 20 20 20 20 20 20 19 18 17 17 17 16 16 15 15 14 14 12 11 10 9 8 8 9 10 11 12 12 12 13 13 13 13 13 13 13 13 14 15 16 17 17 17 17 16 16 15 15 14 14 13 13 13 14 15 16 17 17 18 17
16 17 17 18 18 19 19 19 20 20 20 20 20 19 19 18 17 17 17 16 15 15 15 14 13 12 11 9 8 8 8 9 9 10 11 12 13 13 13 13 13 13 13 13 13 14 14 15 16 16 17 17 16 16 15 15 14 14 13 13 12 12 13 14 15 16 16 17 16
17 18 19 19 19 19 20 19 19 19 19 19 19 19 18 17 16 16 16 16 15 14 14 13 12 11 10 9 8 8 9 9 10 10 11 12 13 14 13 13 13 13 14 14 14 14 14 15 15 16 16 16 16 15 15 14 14 13 13 12 12 12 12 13 14 15 15 15 15
18 19 19 20 20 20 20 19 19 19 19 19 19 18 17 16 15 16 16 15 14 13 13 12 11 10 10 9 9 9 9 10 10 11 12 13 13 14 14 13 13 13 14 14 14 14 14 14 15 15 16 16 15 15 14 14 13 13 12 11 11 11 11 12 12 13 13 13 12
19 20 20 20 20 20 20 20 19 19 19 19 19 18 17 16 15 15 15 14 13 12 12 11 11 10 10 10 9 10 10 10 11 12 12 13 13 13 13 13 13 13 13 14 14 14 14 14 15 15 15 15 15 14 13 13 12 12 11 11 10 10 10 10 11 11 11 11 11
Wind_Direction
222 220 219 219 219 220 221 222 224 225 222 216 206 203 205 211 217 221 222 220 217 213 211 208 208 209 212 216 219 223 225 227 229 230 232 234 236 237 239 240 241 241 242 243 243 244 246 247 248 248 249 250 252 254 256 258 259 259 258 257 256 255 255 255 256 257 258 258 259
221 220 219 219 219 219 219 220 221 221 218 212 206 205 208 213 219 222 222 218 214 211 209 209 210 214 218 223 228 231 234 235 237 239 241 242 243 243 244 244 245 246 246 247 247 248 249 250 251 252 252 252 253 253 254 256 258 259 260 260 261 261 262 262 260 260 260 261 263
220 219 217 216 215 215 216 218 218 218 215 210 208 208 211 216 222 225 223 218 213 211 210 212 215 220 226 231 235 238 241 244 247 250 251 251 250 250 249 249 249 249 249 249 249 249 250 251 252 253 253 253 253 254 254 257 260 266 272 276 276 274 272 270 268 266 267 268 269
217 216 214 212 212 212 214 215 214 213 211 210 210 211 215 220 225 227 223 218 214 213 214 217 222 227 232 236 239 242 246 250 254 257 258 257 255 254 253 253 253 252 251 250 249 249 250 250 251 251 252 253 255 256 260 264 270 276 280 282 281 279 277 276 275 274 273 273 272
213 212 211 209 209 210 209 208 209 209 210 211 212 214 218 224 229 229 224 219 216 216 219 223 228 232 235 238 240 243 247 252 257 260 261 260 259 257 256 256 255 254 252 250 249 248 248 249 250 251 253 255 258 262 267 273 279 282 283 282 281 281 281 280 279 277 275 273 272
210 209 207 206 206 207 206 204 205 208 211 212 214 217 222 228 231 230 225 220 219 220 223 227 231 234 236 238 241 245 250 255 258 259 260 260 260 259 258 257 256 254 253 252 251 250 251 252 253 256 259 263 267 271 274 277 280 281 281 281 281 281 281 279 277 275 273 272 271
208 207 206 205 205 204 203 202 205 209 211 213 216 220 225 230 232 230 226 223 223 224 226 229 233 236 238 241 245 249 253 256 257 258 259 259 259 258 258 257 256 256 257 257 258 258 258 259 261 264 268 272 275 277 277 277 276 276 276 277 278 278 277 276 274 273 272 271 271
208 207 206 205 203 203 204 206 207 210 213 215 218 222 226 230 232 230 228 226 225 227 229 232 236 240 245 250 253 254 253 252 253 255 257 258 258 258 257 257 258 259 261 262 263 264 264 265 267 270 273 274 274 273 272 272 272 273 274 276 276 275 274 274 273 273 273 273 274
213 210 207 206 203 202 204 208 209 212 215 218 220 223 227 230 232 231 229 227 228 230 233 237 242 248 253 256 256 253 249 245 246 249 254 257 259 260 260 260 261 262 263 264 265 265 266 267 268 269 269 269 268 268 269 270 272 273 274 274 274 274 274 274 274 274 275 275 276
219 215 212 210 208 205 204 205 210 214 218 220 222 224 227 230 232 231 230 229 230 233 236 241 246 251 254 255 254 251 247 244 245 249 254 258 261 262 262 262 262 262 263 263 264 265 265 266 266 267 267 268 268 270 271 272 273 273 274 274 275 275 275 276 276 277 278 278 278
224 221 217 216 213 207 202 202 209 215 219 220 222 224 227 230 231 232 232 233 234 236 239 243 247 249 251 251 250 249 249 250 252 255 257 260 262 263 264 264 264 264 264 265 266 266 267 268 269 271 272 273 273 274 274 274 274 275 276 277 278 278 279 279 279 279 279 279 279
226 222 216 212 206 200 198 202 209 214 218 220 222 225 227 230 232 234 236 238 240 241 243 244 246 247 248 249 250 251 253 256 257 258 260 261 262 264 265 266 267 268 269 270 270 271 272 273 274 274 274 274 275 275 276 276 277 278 279 279 280 280 280 280 280 280 279 279 279
218 211 206 201 198 197 201 207 211 215 218 220 223 226 229 232 234 238 241 244 246 247 246 246 246 246 247 249 252 256 258 260 261 262 263 264 265 267 268 269 270 271 272 272 273 274 274 274 274 275 275 275 276 276 277 278 279 279 280 280 280 280 280 280 279 279 278 278 279
204 201 200 200 199 202 207 211 215 218 220 223 226 228 231 234 238 243 247 250 250 249 247 246 245 246 248 252 256 260 262 263 264 265 267 268 269 270 271 271 271 271 272 272 273 273 274 274 275 276 276 277 278 278 278 279 279 279 279 279 279 279 279 279 278 278 278 279 279
201 201 202 202 203 208 212 214 217 219 222 224 226 229 232 237 242 246 250 252 252 250 248 246 246 247 250 255 259 261 262 264 265 266 268 268 269 270 270 270 271 271 271 272 273 274 275 276 277 278 278 279 279 279 279 278 279 278 278 278 278 278 278 279 279 279 279 279 279
204 203 202 204 211 216 218 217 218 219 221 223 226 230 234 239 243 247 250 252 253 253 252 251 251 253 256 259 260 261 262 263 264 265 266 266 267 268 269 270 271 272 273 274 276 277 277 278 279 279 279 279 279 279 278 278 278 278 279 279 279 279 280 280 280 280 279 279 279
205 205 209 217 220 223 224 222 222 223 224 227 230 234 238 241 243 246 249 252 255 257 259 259 259 259 259 260 260 261 262 263 264 264 265 266 267 269 270 272 273 275 276 277 278 279 279 279 279 279 279 279 279 279 279 279 280 280 280 281 281 281 281 281 280 280 279 279 278
214 219 224 227 226 227 229 231 233 233 232 233 236 238 241 244 246 247 248 250 254 258 260 260 259 258 257 257 259 260 262 263 265 266 268 269 271 273 274 276 277 278 278 279 279 280 280 280 280 280 281 281 281 281 282 282 282 282 283 283 283 282 282 281 280 279 278 277 276
225 230 233 235 236 237 239 240 241 240 238 237 239 241 244 246 248 249 250 251 254 255 255 255 255 255 256 258 260 263 265 267 269 271 273 275 276 278 279 279 280 280 281 281 281 281 282 282 282 283 283 284 284 284 284 284 284 284 283 283 283 282 281 281 279 278 277 275 274
227 231 235 239 243 246 248 248 248 246 242 240 240 242 244 246 248 249 250 253 254 254 255 255 257 259 261 264 267 270 272 274 276 278 279 280 281 282 282 283 283 283 283 284 284 284 285 285 286 286 286 286 285 285 284 284 284 283 283 282 281 281 280 279 278 277 276 275 274
230 231 233 236 240 244 246 245 242 236 232 230 231 234 238 242 245 247 250 253 255 256 258 261 264 267 270 273 275 277 279 280 281 282 283 283 284 284 284 285 285 285 285 286 286 287 287 287 288 287 287 286 286 285 284 284 283 282 281 281 280 280 279 278 277 276 275 275 276
228 223 217 213 215 219 223 225 224 223 223 225 229 234 239 243 247 251 255 258 261 264 267 270 272 274 277 278 280 281 282 283 283 284 284 285 285 285 286 286 286 286 287 287 287 287 287 287 287 287 287 286 286 286 285 285 284 283 282 281 280 280 280 280 279 278 277 277 276
213 205 201 201 204 209 215 219 224 227 230 235 239 244 248 253 257 261 264 267 270 272 274 276 277 278 279 280 281 282 283 284 285 285 285 286 286 286 286 286 287 287 287 287 287 287 287 287 287 287 287 287 287 287 287 287 286 285 284 283 283 285 285 285 284 282 279 276 275
203 201 201 204 209 215 220 227 233 238 243 248 253 257 261 265 268 271 274 276 277 278 279 280 280 281 282 283 284 284 285 285 286 286 286 286 286 287 287 287 287 287 287 287 288 288 288 289 289 289 289 289 289 289 288 288 288 288 286 285 285 285 285 283 282 281 279 277 276
203 204 208 213 220 227 233 240 245 250 255 259 264 268 271 274 276 278 280 281 282 283 283 283 284 284 285 286 286 286 286 286 286 286 286 287 287 287 287 287 288 288 288 289 290 291 292 292 292 292 292 291 291 291 291 290 290 289 287 284 281 277 274 275 277 279 280 279 278
207 213 218 225 231 238 245 251 255 260 265 269 273 276 279 281 282 284 285 286 286 286 286 286 286 286 286 286 286 286 286 286 286 286 287 287 287 287 287 288 289 290 292 294 295 296 296 296 296 295 295 295 295 295 295 294 292 289 284 279 274 271 271 272 275 276 277 276 275
215 222 229 237 243 250 256 262 267 272 276 279 282 284 285 286 287 287 288 288 287 287 286 286 285 285 284 284 284 284 284 284 285 286 286 286 287 287 288 289 291 294 296 297 298 298 298 299 299 299 299 299 300 300 299 297 293 287 280 274 272 273 275 276 276 274 271 269 271
228 235 243 252 258 265 271 276 281 284 286 287 287 288 287 287 287 287 287 286 285 285 284 283 282 282 282 282 282 283 283 284 284 284 285 285 286 288 290 293 296 298 298 299 300 300 300 300 300 301 302 303 303 302 300 297 292 284 276 271 272 275 277 278 278 275 272 271 273
245 254 263 271 277 281 285 287 289 289 289 289 288 287 286 286 285 284 284 284 283 282 282 281 280 280 280 280 281 282 282 283 283 283 284 286 289 293 296 299 300 301 301 301 302 301 300 300 301 303 305 305 305 303 301 296 290 282 272 266 265 268 272 275 276 276 276 276 275
263 271 277 282 285 287 289 289 289 288 287 286 285 284 283 283 283 283 283 282 281 280 280 279 278 277 277 277 279 280 281 282 283 284 287 291 295 299 301 302 302 303 303 303 303 303 302 302 304 306 307 307 306 305 302 297 291 282 272 263 259 261 264 268 271 273 274 275 273
271 276 279 281 283 284 285 285 285 285 284 283 282 282 282 282 283 283 282 282 280 279 277 276 275 274 274 275 277 279 280 281 283 286 290 294 297 300 302 303 304 304 305 305 305 305 304 305 307 309 310 309 308 307 304 299 292 284 274 265 259 257 259 263 266 268 270 271 274
271 274 276 278 278 279 280 281 282 283 283 282 282 282 282 282 282 282 282 281 278 276 274 272 272 272 273 275 277 279 280 281 282 285 288 292 295 299 302 305 305 306 307 308 308 308 308 309 310 311 311 310 310 308 305 300 294 286 278 269 262 259 258 261 264 266 267 270 276
270 273 274 275 276 277 278 279 280 281 281 281 281 281 281 281 281 281 280 278 274 271 269 268 268 270 272 275 278 280 281 280 280 281 284 289 293 299 304 306 306 307 309 310 310 310 310 310 311 311 311 310 309 308 306 302 297 290 282 274 267 262 260 261 264 266 269 272 277
269 272 273 275 276 277 278 279 280 280 280 280 280 281 281 280 279 277 275 272 269 267 265 264 265 268 272 275 279 281 281 279 278 279 282 287 293 299 303 305 305 307 309 309 309 310 310 310 310 309 309 308 307 307 306 304 301 295 288 279 271 265 262 261 263 266 269 272 276
269 272 274 276 277 278 279 280 280 281 281 281 281 281 281 280 277 272 268 266 264 262 261 262 264 268 272 277 279 280 278 276 276 278 283 288 293 297 299 300 302 304 306 306 307 308 309 309 308 307 306 305 305 305 305 305 303 300 293 284 274 267 263 262 262 264 266 269 273
270 273 275 277 278 280 281 281 281 282 282 282 282 283 281 279 274 268 263 260 259 259 260 262 265 269 273 276 277 276 274 274 276 281 286 290 292 293 294 294 296 299 301 303 306 308 309 309 308 307 306 306 306 306 306 305 304 301 296 288 277 269 264 262 262 263 265 268 271
272 274 275 277 279 280 281 281 282 282 283 283 283 282 280 276 269 262 258 255 255 257 260 263 267 270 272 272 271 270 271 274 279 284 288 290 291 290 290 290 292 296 300 304 308 310 310 309 308 309 310 310 310 310 308 306 304 301 296 290 281 272 266 263 262 263 264 267 269
272 274 276 277 279 280 280 281 281 282 283 283 282 281 278 273 265 257 253 251 252 256 260 265 268 269 268 265 263 265 271 277 282 286 289 290 289 288 288 290 292 297 302 306 309 310 309 309 310 311 313 314 314 313 311 308 305 300 295 289 281 274 268 264 262 262 263 265 266
273 275 277 278 280 280 281 281 281 282 282 281 281 279 276 269 260 252 249 249 251 256 261 265 266 265 262 259 260 265 273 279 284 286 288 288 288 287 288 291 294 298 302 306 308 309 309 309 310 311 312 313 314 314 314 311 307 302 296 289 282 275 269 265 263 262 261 261 262
273 275 277 279 280 281 282 282 282 281 280 279 278 276 272 264 255 248 246 247 250 256 261 264 264 262 259 260 263 269 275 280 283 285 285 285 286 288 290 293 297 300 303 305 307 309 309 310 310 310 310 311 313 315 316 315 310 304 298 291 283 276 270 267 264 262 260 259 260
273 276 277 279 280 281 281 281 280 279 278 277 275 273 268 261 252 245 242 244 249 255 260 263 262 261 261 264 268 272 277 280 282 282 283 284 287 290 293 296 299 302 304 306 307 308 309 309 309 309 309 311 314 317 318 317 311 305 298 291 283 276 270 266 264 262 261 260 259
Height
1500 1501 1502 1503 1503 1504 1506 1507 1508 1509 1510 1511 1512 1513 1514 1515 1516 1516 1517 1518 1519 1519 1520 1521 1521 1522 1522 1523 1523 1524 1524 1525 1526 1526 1527 1528 1528 1529 1530 1531 1531 1532 1532 1533 1533 1533 1534 1534 1534 1534 1535 1535 1535 1535 1536 1536 1536 1536 1536 1535 1535 1535 1536 1537 1538 1538 1539 1540 1540
1499 1500 1500 1501 1502 1503 1504 1506 1507 1508 1509 1510 1511 1512 1513 1514 1515 1516 1517 1517 1518 1519 1519 1520 1521 1521 1522 1522 1523 1523 1524 1525 1526 1526 1527 1528 1528 1529 1529 1530 1530 1531 1531 1532 1532 1533 1533 1533 1533 1534 1534 1534 1534 1534 1535 1535 1536 1536 1535 1534 1533 1533 1533 1535 1536 1537 1538 1538 1539
1497 1498 1499 1500 1501 1502 1503 1505 1506 1507 1508 1509 1510 1511 1512 1513 1514 1515 1516 1517 1518 1518 1519 1520 1520 1521 1521 1522 1523 1523 1524 1525 1526 1526 1527 1528 1528 1528 1529 1529 1530 1530 1530 1531 1531 1531 1532 1532 1532 1533 1533 1533 1533 1533 1533 1533 1533 1534 1535 1535 1534 1533 1533 1533 1534 1535 1535 1536 1536
1496 1497 1499 1500 1501 1502 1503 1504 1505 1506 1507 1508 1509 1510 1511 1512 1513 1514 1515 1516 1517 1518 1518 1519 1519 1520 1521 1521 1522 1523 1524 1524 1525 1526 1526 1527 1528 1528 1528 1529 1529 1530 1530 1530 1530 1530 1531 1531 1531 1532 1532 1532 1532 1532 1532 1532 1532 1533 1534 1535 1535 1534 1532 1531 1532 1532 1533 1533 1534
1495 1496 1498 1499 1501 1501 1502 1502 1504 1505 1506 1506 1508 1509 1510 1511 1513 1513 1514 1515 1516 1517 1518 1518 1518 1519 1520 1520 1521 1522 1523 1524 1524 1525 1525 1526 1527 1527 1528 1528 1529 1529 1529 1529 1529 1529 1530 1530 1530 1530 1531 1531 1531 1531 1531 1531 1531 1532 1532 1532 1533 1532 1530 1530 1530 1531 1531 1531 1532
1494 1495 1496 1497 1499 1500 1500 1501 1502 1504 1505 1505 1506 1508 1509 1510 1511 1512 1513 1514 1515 1516 1517 1517 1518 1518 1519 1519 1520 1521 1522 1522 1523 1523 1524 1525 1526 1526 1527 1528 1528 1528 1528 1528 1528 1528 1528 1529 1529 1529 1529 1529 1529 1529 1530 1530 1530 1530 1530 1530 1530 1529 1529 1528 1529 1529 1530 1530 1530
1493 1494 1494 1495 1496 1497 1497 1499 1501 1502 1503 1504 1505 1506 1508 1509 1510 1511 1512 1513 1514 1515 1516 1516 1517 1517 1518 1518 1519 1520 1521 1521 1522 1522 1523 1523 1524 1525 1526 1526 1527 1527 1527 1527 1527 1527 1527 1527 1528 1528 1528 1528 1528 1528 1528 1529 1528 1528 1528 1528 1528 1528 1527 1527 1528 1528 1528 1528 1528
1492 1493 1493 1493 1494 1494 1496 1498 1500 1501 1502 1503 1504 1505 1506 1508 1509 1510 1511 1512 1513 1514 1514 1515 1516 1516 1517 1518 1518 1519 1520 1520 1521 1521 1522 1523 1523 1524 1525 1525 1525 1526 1526 1526 1526 1526 1526 1526 1526 1526 1527 1527 1527 1527 1527 1527 1527 1526 1526 1526 1526 1526 1526 1526 1526 1526 1526 1526 1526
1491 1491 1491 1491 1492 1493 1494 1496 1499 1500 1501 1502 1503 1504 1505 1507 1508 1509 1510 1511 1512 1513 1513 1514 1515 1515 1516 1517 1517 1518 1518 1519 1520 1520 1521 1522 1522 1523 1523 1524 1524 1524 1524 1525 1525 1525 1525 1525 1525 1526 1526 1526 1526 1526 1525 1525 1524 1524 1524 1524 1524 1525 1525 1525 1525 1524 1524 1524 1523
1489 1489 1489 1490 1491 1492 1494 1496 1498 1499 1500 1501 1502 1503 1504 1506 1507 1508 1509 1510 1511 1512 1512 1513 1514 1514 1515 1515 1516 1517 1517 1518 1518 1519 1520 1521 1521 1522 1522 1522 1523 1523 1523 1523 1523 1523 1523 1523 1523 1523 1523 1523 1523 1523 1523 1523 1522 1522 1522 1523 1523 1523 1523 1523 1523 1522 1521 1521 1521
1487 1487 1488 1489 1491 1492 1493 1495 1497 1498 1499 1499 1501 1502 1503 1505 1506 1507 1508 1509 1510 1511 1511 1512 1513 1513 1514 1514 1515 1516 1516 1516 1517 1518 1519 1519 1520 1520 1521 1521 1521 1521 1521 1521 1521 1521 1521 1521 1521 1521 1521 1521 1521 1521 1521 1521 1521 1521 1520 1521 1521 1521 1521 1521 1520 1520 1519 1518 1518
1486 1486 1487 1489 1491 1492 1492 1493 1495 1496 1497 1498 1500 1501 1502 1504 1505 1506 1507 1508 1509 1509 1510 1511 1511 1512 1512 1513 1513 1514 1514 1515 1516 1516 1517 1518 1518 1518 1519 1519 1519 1519 1519 1519 1519 1519 1519 1519 1519 1519 1519 1519 1519 1519 1519 1519 1518 1518 1518 1518 1518 1518 1518 1518 1518 1517 1516 1516 1515
1485 1486 1488 1490 1491 1491 1492 1493 1494 1495 1496 1498 1499 1501 1502 1503 1504 1505 1506 1506 1507 1508 1509 1509 1510 1510 1511 1511 1511 1512 1512 1513 1514 1515 1515 1516 1516 1517 1517 1517 1517 1518 1518 1518 1518 1518 1517 1517 1517 1517 1517 1517 1517 1517 1517 1516 1516 1516 1516 1516 1516 1516 1515 1515 1515 1515 1514 1513 1512
1486 1487 1488 1489 1489 1490 1491 1492 1493 1494 1496 1498 1499 1500 1501 1502 1502 1503 1504 1505 1505 1506 1507 1507 1508 1508 1508 1509 1509 1510 1511 1512 1513 1513 1513 1514 1514 1515 1515 1516 1516 1516 1516 1516 1516 1516 1516 1516 1516 1516 1515 1515 1515 1515 1514 1514 1514 1513 1513 1513 1513 1513 1513 1513 1512 1512 1511 1510 1510
1486 1486 1486 1487 1488 1489 1491 1492 1493 1494 1496 1497 1499 1500 1501 1501 1501 1502 1502 1503 1503 1504 1504 1505 1505 1506 1507 1507 1508 1509 1510 1511 1511 1511 1512 1513 1513 1513 1514 1514 1514 1514 1514 1514 1514 1514 1514 1514 1514 1513 1513 1513 1513 1512 1512 1512 1512 1511 1511 1511 1511 1510 1510 1510 1509 1509 1508 1507 1507
1485 1484 1485 1486 1488 1490 1491 1491 1492 1493 1495 1497 1498 1500 1500 1500 1500 1501 1501 1501 1502 1502 1502 1503 1504 1504 1505 1506 1507 1508 1509 1509 1510 1510 1511 1511 1511 1512 1512 1512 1512 1512 1512 1512 1512 1512 1512 1512 1511 1511 1511 1510 1510 1510 1510 1510 1509 1509 1509 1508 1508 1508 1507 1507 1506 1506 1505 1505 1504
1483 1483 1484 1486 1488 1490 1491 1491 1492 1493 1494 1496 1498 1499 1499 1499 1499 1499 1499 1500 1500 1501 1501 1502 1503 1504 1505 1506 1506 1507 1507 1508 1508 1509 1509 1509 1510 1510 1510 1510 1510 1510 1510 1510 1510 1510 1510 1509 1509 1508 1508 1508 1508 1508 1507 1507 1507 1506 1506 1506 1505 1505 1504 1504 1503 1503 1503 1502 1502
1483 1484 1485 1487 1488 1489 1490 1491 1492 1493 1493 1495 1496 1497 1498 1498 1498 1498 1498 1498 1499 1500 1501 1501 1502 1503 1504 1505 1505 1506 1506 1506 1507 1507 1508 1508 1508 1508 1508 1508 1508 1508 1508 1508 1508 1508 1507 1507 1507 1506 1506 1506 1505 1505 1505 1504 1504 1503 1503 1503 1502 1502 1501 1501 1501 1500 1500 1500 1499
1484 1485 1486 1486 1487 1488 1489 1490 1491 1492 1492 1493 1494 1495 1496 1497 1497 1497 1497 1497 1498 1499 1500 1501 1502 1502 1503 1503 1504 1504 1505 1505 1505 1506 1506 1506 1506 1506 1506 1506 1506 1506 1506 1506 1505 1505 1505 1505 1504 1504 1503 1503 1503 1502 1502 1501 1501 1501 1500 1500 1499 1499 1499 1498 1498 1498 1498 1497 1497
1484 1485 1486 1486 1486 1487 1488 1489 1490 1491 1491 1492 1493 1494 1494 1495 1496 1496 1496 1497 1498 1498 1499 1500 1501 1501 1502 1502 1503 1503 1503 1503 1504 1504 1504 1504 1504 1504 1504 1504 1503 1503 1503 1503 1503 1503 1503 1502 1502 1501 1501 1501 1500 1500 1499 1499 1499 1498 1498 1497 1497 1497 1497 1496 1496 1496 1496 1495 1495
1484 1484 1485 1486 1487 1488 1488 1489 1490 1491 1491 1492 1493 1493 1494 1494 1495 1495 1496 1496 1497 1498 1498 1499 1500 1500 1500 1501 1501 1501 1501 1502 1502 1502 1502 1502 1502 1502 1502 1502 1502 1501 1501 1501 1501 1501 1501 1500 1500 1499 1499 1498 1498 1497 1497 1497 1496 1496 1496 1495 1495 1495 1495 1494 1494 1494 1494 1493 1493
1484 1485 1486 1487 1488 1489 1489 1490 1490 1491 1491 1492 1492 1493 1493 1493 1494 1494 1495 1496 1496 1497 1497 1498 1498 1498 1499 1499 1500 1500 1500 1500 1501 1501 1501 1501 1501 1500 1500 1500 1500 1500 1500 1499 1499 1499 1498 1498 1498 1497 1497 1496 1496 1496 1495 1494 1494 1494 1493 1493 1493 1493 1493 1492 1492 1492 1492 1492 1491
1485 1486 1487 1488 1488 1489 1489 1490 1490 1490 1491 1491 1491 1492 1492 1493 1493 1494 1494 1495 1495 1496 1496 1496 1497 1497 1498 1498 1498 1499 1499 1499 1499 1499 1499 1499 1499 1499 1499 1498 1498 1498 1498 1498 1497 1497 1497 1496 1496 1496 1495 1495 1494 1494 1493 1493 1492 1492 1491 1491 1491 1491 1491 1491 1491 1490 1490 1490 1490
1485 1486 1487 1487 1488 1488 1489 1489 1489 1490 1490 1490 1491 1491 1491 1492 1492 1493 1493 1494 1494 1495 1495 1495 1496 1496 1496 1497 1497 1497 1497 1498 1498 1498 1498 1498 1498 1497 1497 1497 1497 1497 1496 1496 1496 1495 1495 1495 1494 1494 1493 1493 1492 1492 1491 1491 1490 1490 1490 1489 1489 1489 1489 1489 1489 1489 1488 1488 1488
1485 1486 1486 1487 1487 1487 1488 1488 1488 1489 1489 1489 1490 1490 1491 1491 1491 1492 1492 1493 1493 1493 1494 1494 1494 1495 1495 1495 1496 1496 1496 1496 1496 1496 1496 1496 1496 1496 1496 1496 1495 1495 1494 1494 1493 1493 1493 1492 1492 1492 1491 1491 1491 1490 1489 1489 1488 1488 1488 1488 1488 1488 1488 1488 1487 1487 1487 1487 1486
1485 1485 1486 1486 1486 1487 1487 1487 1488 1488 1488 1489 1489 1489 1490 1490 1490 1491 1491 1492 1492 1492 1493 1493 1493 1493 1494 1494 1494 1495 1495 1495 1495 1495 1495 1495 1495 1495 1494 1494 1494 1493 1493 1492 1492 1491 1491 1490 1490 1489 1489 1489 1488 1488 1488 1487 1487 1487 1486 1486 1486 1486 1486 1486 1486 1486 1486 1485 1485
1484 1485 1485 1486 1486 1486 1487 1487 1487 1487 1488 1488 1488 1488 1489 1489 1489 1490 1490 1491 1491 1491 1492 1492 1492 1493 1493 1493 1493 1493 1494 1494 1494 1494 1494 1494 1494 1493 1493 1493 1492 1491 1491 1491 1490 1490 1489 1489 1488 1487 1487 1486 1486 1486 1486 1486 1485 1485 1485 1485 1485 1485 1485 1485 1484 1484 1484 1484 1484
1484 1485 1485 1485 1486 1486 1486 1486 1486 1486 1487 1487 1487 1488 1488 1488 1489 1489 1490 1490 1491 1491 1491 1491 1492 1492 1492 1492 1492 1492 1492 1492 1493 1493 1493 1492 1492 1492 1491 1491 1491 1490 1490 1489 1489 1488 1488 1487 1487 1486 1485 1485 1484 1484 1484 1484 1483 1483 1483 1483 1483 1483 1483 1483 1483 1483 1483 1483 1483
1484 1484 1484 1484 1485 1485 1485 1485 1486 1486 1486 1486 1487 1487 1488 1488 1488 1489 1489 1490 1490 1490 1490 1491 1491 1491 1491 1491 1491 1491 1491 1491 1491 1491 1491 1491 1491 1490 1490 1490 1489 1489 1489 1488 1488 1487 1487 1486 1485 1485 1484 1483 1483 1482 1482 1482 1482 1481 1481 1481 1481 1482 1482 1482 1482 1482 1481 1481 1481
1483 1483 1484 1484 1484 1484 1485 1485 1485 1486 1486 1486 1487 1487 1487 1488 1488 1488 1489 1489 1489 1489 1489 1489 1490 1490 1490 1490 1490 1490 1490 1490 1490 1490 1489 1489 1489 1489 1489 1488 1488 1488 1488 1487 1487 1486 1486 1485 1484 1484 1483 1482 1481 1481 1480 1480 1480 1479 1479 1480 1480 1480 1480 1480 1480 1480 1480 1480 1480
1483 1483 1483 1484 1484 1484 1485 1485 1485 1486 1486 1486 1486 1487 1487 1487 1487 1487 1488 1488 1488 1488 1488 1488 1488 1488 1489 1489 1489 1489 1489 1488 1488 1488 1488 1488 1488 1488 1488 1488 1487 1487 1486 1486 1486 1485 1484 1484 1483 1483 1482 1481 1480 1480 1479 1478 1478 1478 1478 1478 1478 1478 1478 1479 1479 1479 1479 1479 1479
1483 1483 1483 1484 1484 1484 1485 1485 1485 1485 1486 1486 1486 1486 1486 1486 1486 1486 1487 1487 1487 1487 1487 1487 1487 1487 1487 1487 1487 1488 1487 1487 1487 1487 1487 1487 1487 1487 1487 1487 1486 1486 1485 1485 1484 1484 1483 1483 1482 1481 1481 1480 1479 1479 1478 1477 1477 1476 1476 1476 1476 1476 1477 1477 1478 1478 1478 1478 1478
1482 1483 1483 1483 1484 1484 1484 1484 1485 1485 1485 1485 1485 1485 1485 1485 1485 1485 1485 1486 1486 1486 1486 1486 1486 1486 1486 1486 1486 1486 1486 1486 1486 1486 1486 1486 1486 1486 1486 1486 1485 1485 1484 1484 1483 1483 1482 1481 1481 1480 1480 1479 1478 1477 1477 1476 1475 1475 1475 1474 1475 1475 1475 1476 1476 1476 1476 1476 1476
1482 1482 1483 1483 1483 1483 1484 1484 1484 1484 1484 1484 1484 1484 1484 1484 1484 1484 1484 1484 1484 1484 1485 1485 1485 1485 1485 1485 1485 1485 1485 1485 1485 1485 1485 1485 1485 1485 1485 1484 1484 1483 1483 1483 1482 1482 1481 1480 1480 1479 1478 1478 1477 1476 1476 1475 1474 1474 1473 1473 1473 1474 1474 1474 1475 1475 1475 1475 1475
1481 1482 1482 1482 1482 1483 1483 1483 1483 1483 1483 1483 1483 1483 1483 1483 1483 1483 1483 1483 1483 1483 1483 1483 1484 1484 1484 1484 1484 1484 1484 1484 1484 1484 1484 1484 1484 1484 1483 1483 1483 1483 1482 1482 1481 1481 1480 1479 1479 1478 1477 1476 1476 1475 1474 1474 1473 1473 1472 1472 1472 1472 1473 1473 1473 1474 1474 1474 1474
1481 1481 1481 1481 1481 1482 1482 1482 1482 1482 1482 1482 1482 1482 1482 1482 1481 1481 1481 1482 1482 1482 1482 1482 1482 1482 1483 1483 1483 1483 1483 1483 1483 1483 1483 1483 1483 1482 1482 1482 1482 1481 1481 1481 1480 1479 1479 1478 1478 1477 1476 1475 1475 1474 1473 1473 1472 1472 1471 1471 1471 1471 1471 1472 1472 1473 1473 1473 1473
1480 1480 1480 1480 1480 1481 1481 1481 1481 1481 1481 1480 1480 1480 1480 1480 1480 1480 1480 1480 1481 1481 1481 1481 1481 1481 1481 1481 1481 1481 1481 1481 1482 1481 1481 1481 1481 1481 1481 1481 1481 1480 1480 1479 1479 1478 1478 1477 1476 1476 1475 1474 1474 1473 1472 1472 1471 1471 1470 1470 1470 1470 1471 1471 1471 1471 1472 1472 1472
1479 1479 1479 1479 1479 1479 1479 1479 1479 1479 1479 1479 1479 1479 1479 1479 1479 1479 1479 1479 1479 1479 1480 1480 1480 1480 1480 1480 1480 1480 1480 1480 1480 1480 1480 1480 1480 1480 1480 1479 1479 1479 1478 1478 1478 1477 1477 1476 1475 1475 1474 1473 1473 1472 1472 1471 1470 1470 1470 1469 1469 1469 1470 1470 1470 1470 1470 1471 1471
1478 1478 1478 1478 1478 1478 1478 1478 1478 1478 1477 1477 1477 1477 1477 1477 1477 1477 1477 1478 1478 1478 1478 1478 1479 1479 1479 1479 1479 1479 1479 1479 1479 1479 1479 1479 1479 1478 1478 1478 1478 1478 1477 1477 1476 1476 1476 1475 1474 1474 1473 1473 1472 1471 1471 1470 1470 1469 1469 1469 1468 1468 1469 1469 1469 1469 1469 1469 1469
1476 1476 1476 1476 1476 1476 1476 1476 1476 1476 1476 1476 1476 1476 1476 1476 1476 1476 1476 1477 1477 1477 1477 1478 1478 1478 1478 1478 1478 1478 1478 1478 1478 1478 1478 1478 1478 1477 1477 1477 1477 1476 1476 1476 1476 1475 1475 1474 1473 1473 1472 1472 1471 1471 1470 1469 1469 1468 1468 1468 1468 1468 1468 1468 1468 1468 1468 1468 1468
1475 1475 1475 1475 1475 1475 1475 1475 1475 1474 1474 1474 1474 1474 1474 1474 1475 1475 1475 1476 1476 1476 1476 1476 1477 1477 1477 1477 1477 1477 1477 1477 1477 1477 1477 1477 1476 1476 1476 1476 1476 1475 1475 1475 1474 1474 1474 1473 1473 1472 1472 1471 1470 1470 1469 1469 1468 1468 1467 1467 1467 1467 1467 1467 1467 1467 1467 1467 1467